Other Public Products
Issued by NWS Charleston, SC

Current Version | Previous Version | Graphics & Text | Print | Product List | Glossary On
Versions: 1 2 3 4 5 6 7 8 9 10 11 12 13 14 15 16 17 18 19 20 21 22 23 24 25 26 27 28 29 30 31 32 33 34 35 36 37 38 39 40 41 42 43 44 45 46 47 48 49 50
437
FPUS82 KCHS 240127
OPUCHS

TEST...KCHS/KSAV Gateway Observations...TEST
National Weather Service Charleston SC
900 PM EDT THU MAR 23 2017

NOTE: "fair" indicates few or no clouds below 12,000 feet with no
significant weather and/or obstructions to visibility.

SCZ050-WAZ558-NCZ071-TXZ119-213-PAZ071-DCZ001-FLZ074-172-MI076-
NYZ176-178-MAZ016-IL014-TNZ027-NJZ106-GAZ044-MD014-240200-

...Gateway Observations for Charleston International...

CITY           SKY/WX    TMP DP  RH WIND       PRES   REMARKS
Chas Airport   PTCLDY    51  37  58 E10       30.49R
Seattle        CLOUDY    54  34  46 W7        29.92F
Charlotte      PTCLDY    54  22  28 SE10      30.47R
Dallas DFW     PTCLDY    80  46  30 S25G43    29.85S
Dallas Love    PTCLDY    80  44  27 S23G33    29.89R
Philladelphia  CLEAR     40  13  33 S6        30.55R WCI  36
Wash National  CLEAR     43  14  31 SE7       30.53S
Baltimore      CLEAR     37  19  48 SE6       30.52S WCI  32
Miami          TSTM      70  65  84 NE14G28   30.24R FOG
Detroit        CLOUDY    39  20  46 SE7       30.26F WCI  34
Newark         PTCLDY    41   1  18 W3        30.53R
Laguardia      PTCLDY    43   4  19 CALM      30.53R
J F K          PTCLDY    37  25  61 S13       30.55R WCI  29
Boston Logan   CLEAR     35   2  24 W9        30.51R WCI  28
Ft. Lauderdale LGT RAIN  71  66  84 E16G29    30.21R
Chicago O`Hare CLOUDY    47  33  58 S10       30.07R
Chicago Midway CLOUDY    49  32  52 SE14G23   30.06F
Houston Bush   MOCLDY    72  58  61 S17G25    30.04F
Houston Hobby  MOCLDY    71  61  70 SE12G22   30.05F
Nashville      PTCLDY    64  43  46 S9        30.21F
Atlanta        MOCLDY    61  38  42 SE12G18   30.39R

$$

GAZ044-118-TXZ119-213-NCZ071-DCZ001-MDZ014-506-PAZ021-071-NJZ106-
NYZ176-178-MAZ106-OHZ011-021-055-MIZ076-KYZ091-ILZ014-INZ047-
MNZ060-ONZ431-240200-

...Gateway Observations for Savannah International...

CITY           SKY/WX    TMP DP  RH WIND       PRES   REMARKS
Savannah Arpt  CLEAR     55  45  68 E8        30.46R
Atlanta        MOCLDY    61  38  42 SE12G18   30.39R
Charlotte      PTCLDY    54  22  28 SE10      30.47R
Dallas DFW     PTCLDY    80  46  30 S25G43    29.85S
Houston Bush   MOCLDY    72  58  61 S17G25    30.04F
Wash National  CLEAR     43  14  31 SE7       30.53S
Wash Dulles    CLEAR     40  10  29 SE7       30.50R WCI  35
Baltimore      CLEAR     37  19  48 SE6       30.52S WCI  32
Philadelphia   CLEAR     40  13  33 S6        30.55R WCI  36
Newark         PTCLDY    41   1  18 W3        30.53R
Laguardia      PTCLDY    43   4  19 CALM      30.53R
J F K          PTCLDY    37  25  61 S13       30.55R WCI  29
Boston         CLEAR     35   2  24 W9        30.51R WCI  28
Pittsburg      PTCLDY    45   5  19 E3        30.34S
Akron          PTCLDY    44   9  23 SE8       30.30F
Cleveland      CLOUDY    46   8  21 SE7       30.31F
Cincinnati     CLOUDY    55  32  41 S6        30.24F
Columbus       CLEAR     46  24  43 SE6       30.26F
Detroit        CLOUDY    39  20  46 SE7       30.26F WCI  34
Chicago O`Hare CLOUDY    47  33  58 S10       30.07R
Minneapolis    DRIZZLE   39  34  82 SE9       29.85R WCI  33
Indianapolis   CLOUDY    53  26  35 S9        30.18F
Toronto Canada CLOUDY    32  18  55 SE7       30.39S WCI  26

$$




USA.gov is the U.S. government's official web portal to all federal, state and local government web resources and services.